User: anonymous   Login
Location: *
(17.3280°S, 114.7300°W)
Time: 11:29:45
(UTC+00:00)
Language:

Cosmos 1953 Rocket - Orbit

View from above orbital plane
View from above orbital plane
View from above satellite
View from above satellite

Ground track
Ground track

The orbit data is extracted from the following two-line orbital elements,

1 19211U 88050B   20296.94409160 +.00000075 +00000-0 +61600-5 0  9997
2 19211 082.5241 137.7759 0022962 047.4374 068.7040 14.83081433727081
Epoch (UTC): 22 October 2020 22:39:29
Eccentricity: 0.0022962
inclination: 82.5241°
perigee height: 603 km
apogee height: 635 km
right ascension of ascending node: 137.7759°
argument of perigee: 47.4374°
revolutions per day: 14.83081433
mean anomaly at epoch: 68.7040°
orbit number at epoch: 72708

The dashed part of the orbit path shows where the satellite is in the earth's shadow,  

DLR